CAPE
nan nan nan nan nan nan nan nan nan nan nan nan nan nan nan nan nan nan nan nan nan nan nan nan nan nan nan nan 1 1 4 7 9 9 12 16 19 19 24 26 26 28 29 28 28 30 33 33 33 35 36 41 45 45 48 51 51 58 63 65 65 79 91 108 108 118 125 130 135 135 137 142 135 135 127 121 112 112 109 110 110 115 121 121 121 123
nan nan nan nan nan nan nan nan nan nan nan nan nan nan nan nan nan nan nan nan nan nan nan nan nan nan nan nan 0 0 3 4 6 6 9 12 16 16 19 20 20 22 23 24 24 27 29 31 31 32 34 36 39 39 44 47 47 52 56 61 61 71 89 98 98 109 119 123 123 123 121 117 105 105 99 95 98 98 103 105 105 116 120 127 127 131
nan nan nan nan nan nan nan nan nan nan nan nan nan nan nan nan nan nan nan nan nan nan nan nan nan nan nan nan 0 0 0 1 3 3 7 9 13 13 15 16 16 17 19 19 19 23 25 29 29 32 34 34 39 39 40 47 47 54 57 60 60 70 81 88 88 97 103 106 104 104 103 94 88 88 86 93 98 98 106 111 111 112 124 127 127 140
nan nan nan nan nan nan nan nan nan nan nan nan nan nan nan nan nan nan nan nan nan nan nan nan nan nan nan nan nan nan nan 0 2 2 5 7 9 9 10 10 10 12 14 17 17 19 23 27 27 31 36 35 37 37 41 45 45 51 55 59 59 65 70 77 77 80 83 83 81 81 78 82 80 80 86 93 102 102 105 107 107 107 114 128 128 141
nan nan nan nan nan nan nan nan nan nan nan nan nan nan nan nan nan nan nan nan nan nan nan nan nan nan nan nan nan nan nan nan 1 1 2 3 3 3 4 5 5 7 9 13 13 17 19 24 24 29 34 38 38 38 40 44 44 50 56 57 57 62 64 67 67 66 66 68 68 68 70 74 77 77 88 93 101 101 106 107 107 106 114 125 125 143
nan nan nan nan nan nan nan nan nan nan nan nan nan nan nan nan nan nan nan nan nan nan nan nan nan nan nan nan nan nan nan nan 0 0 0 0 1 1 1 3 3 4 7 9 9 12 16 20 20 25 31 35 35 35 37 40 40 44 48 50 50 52 55 57 57 56 56 58 60 60 64 67 73 73 82 86 95 95 105 108 108 114 119 130 130 143
nan nan nan nan nan nan nan nan nan nan nan nan nan nan nan nan nan nan nan nan nan nan nan nan nan nan nan nan nan nan nan nan nan nan nan nan nan nan 1 2 2 3 5 10 10 13 17 22 22 27 32 35 35 35 35 36 36 38 42 42 42 45 48 48 48 49 51 52 53 53 56 61 67 67 72 79 87 87 97 110 110 117 128 141 141 149
nan nan nan nan nan nan nan nan nan nan nan nan nan nan nan nan 1 1 3 nan nan nan nan nan nan nan nan nan nan nan nan nan nan nan nan nan nan nan 1 4 4 8 10 13 13 16 20 22 22 25 28 28 27 27 28 26 26 26 26 25 25 27 29 32 32 35 38 40 45 45 46 51 54 54 58 58 64 64 77 89 89 112 129 149 149 166
nan nan nan nan nan nan nan nan nan nan nan nan nan nan nan 1 1 1 nan nan nan nan nan nan nan nan nan nan nan nan nan nan nan nan nan nan nan nan 0 5 5 8 11 13 13 14 16 19 19 20 20 18 18 18 17 16 16 16 17 19 19 20 23 25 25 29 32 36 37 37 41 45 48 48 51 51 61 61 70 85 85 107 129 154 154 184
nan nan nan nan nan nan nan nan nan nan nan nan 0 0 nan nan nan nan nan nan nan nan nan nan nan nan nan nan nan nan nan nan 0 0 2 0 4 4 2 2 2 2 8 9 9 11 11 12 12 13 10 10 10 10 9 8 8 8 10 12 12 14 18 23 23 26 30 32 35 35 40 44 50 50 56 60 68 68 81 90 90 101 129 161 161 193
nan nan nan nan nan nan nan nan nan nan 0 0 nan nan nan nan nan nan nan nan nan nan nan nan nan nan nan nan nan nan nan nan nan nan nan 0 1 1 2 1 1 3 6 6 6 5 5 5 5 5 4 3 2 2 2 2 2 3 5 7 7 9 14 20 20 25 32 35 41 41 47 51 58 58 68 79 86 86 94 97 97 102 121 152 152 176
nan nan nan nan nan nan nan nan 1 1 1 nan nan nan 0 nan 0 0 nan nan nan nan nan nan nan nan nan nan nan nan nan nan nan nan nan nan nan nan nan nan nan nan 0 1 1 1 1 1 1 1 0 nan 0 0 0 0 0 1 2 4 4 8 14 19 19 27 33 42 52 52 56 62 71 71 80 93 98 98 99 98 98 102 114 135 135 158
nan nan nan nan nan nan nan 0 2 2 1 nan nan nan nan nan nan nan nan nan nan nan nan nan nan nan nan nan nan nan nan nan nan nan nan nan nan nan nan nan nan nan nan nan nan nan nan nan nan nan nan nan nan nan nan nan nan 0 2 6 6 10 19 26 26 31 38 49 56 56 61 70 78 78 89 94 102 102 102 102 102 102 114 122 122 141
nan nan nan nan nan 1 1 2 5 5 1 nan nan nan 0 nan nan nan nan nan nan nan nan nan nan nan nan nan nan nan nan nan nan nan nan nan nan nan nan nan nan nan nan nan nan nan nan nan nan nan nan nan nan nan nan nan nan 1 4 10 10 17 25 30 30 35 43 54 55 55 61 67 79 79 85 98 99 99 102 102 102 106 110 119 119 132
nan nan nan 2 2 1 3 5 5 5 1 0 0 0 nan nan nan nan nan nan nan nan 0 2 2 2 nan nan nan nan nan nan nan nan nan nan nan nan nan nan nan nan nan nan nan nan nan nan nan nan nan nan nan nan nan nan nan 4 8 15 15 23 28 34 34 39 45 50 55 55 60 70 79 79 89 98 107 107 106 112 112 111 116 120 120 128
nan 0 3 4 4 4 2 nan 1 1 0 0 0 0 nan nan nan nan nan 0 0 2 4 4 4 2 nan nan nan nan nan 0 0 0 nan nan nan nan nan nan nan nan nan nan nan nan nan nan nan nan nan nan nan nan nan 1 1 6 11 18 18 25 29 35 35 39 46 50 55 55 61 70 79 79 88 98 103 103 109 114 114 113 121 119 119 127
2 7 8 9 9 6 1 nan 0 0 1 0 0 0 nan nan 0 0 2 2 2 3 6 3 3 4 1 nan nan nan 0 1 1 1 0 nan nan nan nan nan nan nan nan nan nan nan nan nan nan nan nan nan nan nan 0 3 3 8 14 19 19 24 31 36 36 41 48 51 56 56 64 70 74 74 83 89 96 96 102 106 106 119 121 125 125 126
11 12 7 5 5 3 2 1 1 1 1 0 nan nan 0 2 3 3 3 2 2 3 4 6 6 3 3 0 nan nan 0 1 1 1 0 nan nan nan nan nan nan nan nan nan nan nan nan nan nan nan nan 0 1 1 2 5 5 8 14 19 19 25 31 36 36 44 48 51 55 55 61 65 73 73 78 83 90 90 100 105 105 113 116 118 118 120
12 8 7 5 5 3 2 1 0 0 0 nan 0 0 3 3 4 4 0 1 1 3 8 6 6 6 2 0 nan nan nan 1 1 1 0 nan nan nan nan nan nan nan nan nan nan nan nan nan nan nan 0 2 3 3 5 7 7 10 15 19 19 25 30 36 36 43 49 53 56 56 57 62 70 70 75 81 87 87 93 102 102 106 114 112 112 119
9 8 7 4 4 3 2 1 1 1 1 3 5 5 6 4 1 1 0 2 2 1 5 6 6 5 3 1 nan nan nan 1 1 1 1 nan nan nan nan nan nan nan nan nan nan nan nan nan nan nan 0 2 4 4 7 9 9 12 16 20 20 24 30 34 34 39 44 47 50 50 56 59 65 65 70 72 80 80 84 94 94 102 110 112 112 115
6 7 4 3 3 4 5 3 3 3 7 12 9 9 7 1 nan nan 0 3 3 1 4 12 12 4 2 1 nan nan 0 1 1 1 1 0 nan nan nan nan nan nan nan nan nan nan nan nan nan nan nan 2 5 5 8 10 10 14 16 21 21 24 29 33 33 36 41 46 49 49 52 55 57 57 61 70 75 75 82 90 90 95 102 105 105 111
7 6 3 6 6 8 9 7 11 11 12 11 1 1 1 1 nan nan 1 2 2 5 7 5 5 4 2 0 0 0 0 1 1 1 1 0 nan nan nan nan nan nan nan nan nan nan nan nan nan nan nan 4 6 6 9 11 11 14 19 22 22 24 28 34 34 36 41 44 47 47 48 52 55 55 61 67 73 73 77 84 84 88 92 95 95 100
9 13 12 11 11 11 13 15 14 14 7 1 1 1 1 0 1 1 1 9 9 11 5 2 2 2 1 nan 0 0 0 1 2 2 1 0 nan nan nan nan nan nan nan nan nan nan nan nan nan nan nan 6 6 6 9 11 11 15 18 22 22 24 28 32 32 36 40 42 44 44 45 51 55 55 60 65 66 66 72 76 76 80 83 86 86 90
13 11 9 10 10 13 15 11 2 2 nan 0 1 1 5 4 20 20 19 11 11 7 3 1 1 1 2 1 0 0 nan nan 1 1 1 0 nan nan nan nan nan nan nan nan nan nan nan nan nan nan nan 4 6 6 9 12 12 15 19 20 20 23 27 31 31 34 39 41 42 42 45 47 49 49 54 55 58 58 58 63 63 70 75 78 78 78
6 7 7 8 8 20 15 15 3 3 4 7 12 12 17 17 11 11 3 3 3 3 2 3 3 1 1 1 nan nan nan nan 0 0 0 nan nan nan nan nan nan nan nan nan nan nan nan nan nan nan nan 0 5 5 7 10 10 14 15 19 19 20 23 25 25 30 35 39 39 39 43 44 46 46 47 48 52 52 54 58 58 61 65 71 71 73
8 14 19 31 31 49 59 75 74 74 43 10 5 5 4 4 4 4 3 3 3 2 4 3 3 2 0 nan nan nan nan nan 0 0 0 nan 0 0 nan nan nan nan nan nan nan 1 nan nan nan nan nan nan 2 2 5 8 8 9 12 14 14 15 17 22 22 24 28 32 34 34 38 40 43 43 42 45 49 49 51 55 55 59 64 65 65 71
17 29 39 46 46 45 40 32 28 28 25 19 7 7 7 7 5 5 3 2 2 3 5 3 3 2 0 nan nan nan nan nan 0 0 1 0 0 0 nan nan nan nan nan nan nan 0 0 nan nan nan nan nan nan nan 3 5 5 8 8 10 10 12 14 17 17 19 23 26 31 31 35 38 41 41 43 47 49 49 52 54 54 58 59 61 61 64
12 17 22 21 21 17 18 18 19 19 20 21 26 26 18 8 5 5 3 2 2 5 3 2 2 1 0 nan nan nan nan 0 nan nan 0 0 0 0 nan nan nan nan nan 0 0 3 6 1 1 nan nan nan nan nan 0 4 4 5 5 6 6 8 10 13 13 17 20 24 28 28 33 38 40 40 44 47 47 47 50 51 51 53 54 45 45 25
0 nan 0 0 0 3 6 8 7 7 9 11 15 15 13 8 7 7 4 4 4 4 3 2 2 1 0 0 nan nan nan nan nan nan 0 0 0 0 nan nan nan 0 nan 2 2 3 3 0 0 nan nan nan nan nan nan 1 1 1 3 4 4 5 7 10 10 13 17 21 25 25 30 36 39 39 42 42 46 46 46 46 46 48 41 29 29 18
nan nan nan nan nan nan nan nan nan nan 0 6 12 12 14 8 7 7 6 4 4 3 3 3 3 3 2 1 0 0 nan nan nan nan nan nan nan nan nan 0 0 0 0 2 2 0 nan nan nan nan nan nan nan nan nan nan nan nan 0 3 3 2 4 6 6 9 14 18 23 23 27 31 34 34 35 38 38 38 41 40 40 36 23 15 15 16
nan nan nan nan nan nan nan nan nan nan nan 7 11 11 10 5 4 4 4 3 3 4 4 3 3 3 3 2 0 0 nan nan nan nan nan 1 0 0 0 1 1 1 1 nan nan 0 nan nan nan nan nan nan nan nan nan nan nan nan nan nan nan 0 3 4 4 7 11 15 18 18 21 24 26 26 26 30 34 34 38 40 40 35 16 13 13 16
nan nan nan nan nan nan nan nan nan nan nan nan nan nan 1 4 5 5 6 9 9 9 9 8 8 6 5 2 0 0 nan nan 0 0 2 2 2 2 2 1 1 1 2 2 2 2 nan 0 0 nan nan nan nan nan nan nan nan nan nan nan nan nan 0 2 2 2 2 5 8 8 10 9 12 12 13 17 19 19 22 25 25 31 19 12 12 16
nan nan nan nan nan nan nan nan nan nan nan nan nan nan 1 2 6 6 7 9 9 9 8 7 7 4 2 2 1 1 0 nan 1 1 5 1 4 4 3 0 0 1 2 1 1 1 nan 0 0 nan nan nan nan nan nan nan nan nan nan nan nan nan nan 0 0 0 1 1 2 2 5 5 7 7 9 10 13 13 16 19 19 26 30 9 9 16
nan nan nan nan nan nan nan nan nan nan nan 0 0 0 0 0 3 3 5 7 7 9 9 6 6 4 2 1 1 1 nan nan 2 2 4 3 3 3 3 4 4 2 3 0 0 nan 0 0 0 nan nan nan nan nan nan nan nan nan nan nan nan nan nan nan nan nan 0 0 nan nan nan nan 4 4 3 5 7 7 12 17 17 24 33 23 23 18
nan nan nan nan nan nan nan 0 0 0 0 nan nan nan 0 0 1 1 5 5 5 6 6 7 7 5 3 0 1 1 nan nan 1 1 7 3 1 1 2 4 4 0 0 0 0 1 0 1 1 1 0 nan nan nan nan nan nan nan nan nan nan nan nan nan nan 0 0 nan nan nan nan nan nan nan 0 1 5 5 12 18 18 25 31 42 42 35
nan nan nan nan nan nan nan nan nan nan nan nan nan nan 0 0 1 1 2 3 3 5 6 6 6 6 3 3 1 1 0 nan 2 2 8 4 1 1 0 3 3 1 nan 0 0 0 0 1 1 2 2 0 nan nan nan nan nan nan nan nan nan nan nan 0 0 0 nan nan nan nan nan nan nan nan nan 3 8 8 13 18 18 21 25 35 35 43
nan nan nan nan nan nan nan nan nan nan nan nan nan nan 0 0 1 1 2 4 4 4 3 5 5 4 8 2 1 1 0 0 1 1 5 3 0 0 nan 3 3 4 1 1 1 0 0 0 0 1 1 0 nan nan nan nan nan nan nan nan nan nan nan 0 0 0 0 0 0 0 nan nan 0 0 1 5 6 6 11 12 12 12 17 21 21 27
nan nan nan nan nan nan nan nan nan nan nan nan 0 0 1 1 3 3 2 3 3 4 2 2 2 1 6 8 5 5 1 1 2 2 1 1 0 0 nan 3 3 6 3 2 2 3 0 0 0 0 0 nan 0 0 0 nan nan 0 nan nan nan nan nan 0 0 1 1 1 2 2 2 1 0 0 0 1 0 0 0 0 0 3 8 12 12 19
nan nan nan nan nan nan nan nan nan nan 0 0 1 1 1 2 3 3 1 1 1 2 3 2 2 1 0 2 9 9 7 2 nan nan nan 0 1 1 0 2 2 4 4 4 4 2 0 0 0 nan nan 0 0 0 0 nan nan nan nan 0 0 nan nan 0 0 2 2 2 3 3 2 0 nan nan nan nan nan nan nan nan nan 1 2 2 2 11
0 0 0 0 0 nan nan 0 0 0 0 1 2 2 2 2 1 1 0 0 0 0 1 1 1 2 2 3 5 5 5 1 3 3 0 nan 0 0 1 1 1 2 2 2 2 1 2 0 0 1 1 nan nan nan 0 0 0 0 1 nan nan nan nan 0 0 1 1 1 1 1 1 0 0 0 nan 0 0 0 0 nan nan 0 2 2 2 2
0 0 0 0 0 0 1 1 1 1 1 2 1 1 0 1 0 0 0 1 1 1 1 1 1 1 1 0 1 1 0 1 3 3 nan nan nan nan nan nan nan 0 0 0 0 0 1 0 0 1 0 0 0 0 0 0 0 3 6 0 0 0 0 1 1 0 1 1 1 1 2 2 2 2 1 0 1 1 1 0 0 1 2 2 2 1
1 0 0 nan nan nan 0 0 2 2 2 1 0 0 0 0 1 1 1 1 1 1 1 0 0 0 0 nan 0 0 0 1 0 0 nan nan nan nan nan nan nan nan nan nan nan 1 1 0 0 1 0 nan nan nan 0 0 0 1 2 0 0 1 1 1 1 0 1 1 1 1 3 1 0 0 1 1 2 2 4 3 3 6 5 2 2 2
0 0 0 0 0 0 1 2 1 1 0 0 0 0 0 0 2 2 2 2 2 1 1 1 1 0 0 nan nan nan nan 0 2 2 1 nan nan nan nan nan nan nan nan nan nan nan 1 1 1 0 nan nan nan nan 0 0 0 0 0 1 1 0 nan nan nan nan 0 1 1 1 0 0 0 0 1 1 2 2 3 6 6 12 10 2 2 2
1 0 0 0 0 1 3 2 0 0 0 1 1 1 0 1 2 2 1 1 1 1 1 0 0 1 0 nan nan nan nan 0 1 1 2 2 nan nan nan nan nan nan nan nan nan nan nan 1 1 0 0 nan nan nan 0 0 0 0 0 1 1 nan nan 0 0 0 1 1 0 0 0 0 0 0 0 1 1 1 1 2 2 1 5 2 2 2
0 0 1 1 1 2 1 1 1 1 1 1 1 1 0 1 3 3 2 1 1 1 0 1 1 0 nan nan nan nan nan nan 0 0 0 2 6 6 3 nan nan nan nan nan nan nan nan nan nan 0 0 nan nan nan nan 0 0 0 1 1 1 1 0 0 0 0 0 0 0 0 0 0 0 0 nan 0 1 1 1 1 1 nan nan 0 0 0
1 1 2 2 2 2 3 2 2 2 2 2 1 1 1 1 1 1 2 1 1 1 0 0 0 0 0 0 nan nan nan nan nan nan nan 0 2 2 3 2 2 nan nan nan nan nan nan nan nan nan nan nan 0 0 1 nan nan nan 0 1 1 0 0 0 0 0 0 0 0 0 0 1 0 0 nan 0 0 0 0 0 0 nan nan nan nan nan
1 1 1 1 1 1 1 1 1 1 2 2 1 1 1 1 1 1 1 1 1 0 1 1 1 0 0 0 nan nan nan nan nan nan nan nan 0 0 1 2 2 3 nan nan nan nan nan nan nan nan nan nan 0 0 0 nan nan nan nan 0 0 0 0 0 0 0 1 1 0 0 0 1 0 0 1 0 0 0 0 1 1 2 1 nan nan 0
1 1 0 0 0 0 0 1 2 2 1 2 1 1 1 0 1 1 1 1 1 1 2 0 0 0 0 0 0 0 0 nan nan nan nan nan nan nan 0 0 0 1 2 1 1 0 nan nan nan nan nan nan nan nan 0 0 0 nan nan 0 0 nan nan 0 0 0 0 1 nan nan 0 0 0 0 1 0 nan nan 0 0 0 1 1 2 2 2
1 1 0 0 0 0 0 1 1 1 0 1 1 1 1 2 8 8 2 1 1 0 0 0 0 0 0 0 0 0 0 1 0 0 0 nan nan nan 0 0 0 0 0 1 1 2 1 2 2 1 nan nan nan nan 0 0 0 nan nan nan nan 0 nan nan nan nan nan nan nan nan nan nan nan nan 0 0 0 0 0 0 0 1 1 1 1 2
0 0 1 1 1 0 0 1 1 1 0 1 1 1 1 1 1 1 1 0 0 0 0 0 0 0 0 nan 0 0 1 1 0 0 0 nan nan nan 0 0 0 0 0 1 1 1 0 1 1 0 2 0 nan nan 0 nan nan 0 0 0 0 0 0 nan nan nan nan nan nan nan nan nan nan nan nan nan 0 0 1 0 0 2 3 3 3 3
1 0 0 0 0 0 0 0 0 0 1 0 1 1 1 1 1 1 1 0 0 0 nan nan nan 0 0 0 0 0 1 0 0 0 nan 0 nan nan 0 0 0 nan 0 1 1 0 0 nan nan nan 0 4 0 0 nan nan nan nan 0 nan nan nan nan 0 0 0 1 1 0 0 0 0 0 0 nan nan 0 0 0 0 0 1 2 4 4 5
CIN
nan nan nan nan nan nan nan nan nan nan nan nan nan nan nan nan nan nan nan nan nan nan nan nan nan nan nan nan -0 -0 -0 -0 -0 -0 -0 -0 -0 -0 -0 -0 -0 -0 -0 -0 -0 -0 -0 -0 -0 -0 -0 -0 -0 -0 -0 -0 -0 -0 -0 -0 -0 -0 -0 -0 -0 -0 -0 -0 -0 -0 -0 -0 -0 -0 -0 -0 -0 -0 -0 -0 -0 -0 -0 -0 -0 -0
nan nan nan nan nan nan nan nan nan nan nan nan nan nan nan nan nan nan nan nan nan nan nan nan nan nan nan nan -0 -0 -0 -0 -0 -0 -0 -0 -0 -0 -0 -0 -0 -0 -0 -0 -0 -0 -0 -0 -0 -0 -0 -0 -0 -0 -0 -0 -0 -0 -0 -0 -0 -0 -0 -0 -0 -0 -0 -0 -0 -0 -0 -0 -0 -0 -0 -0 -0 -0 -0 -0 -0 -0 -0 -0 -0 -0
nan nan nan nan nan nan nan nan nan nan nan nan nan nan nan nan nan nan nan nan nan nan nan nan nan nan nan nan -0 -0 -0 -0 -0 -0 -0 -0 -0 -0 -0 -0 -0 -0 -0 -0 -0 -0 -0 -0 -0 -0 -0 -0 -0 -0 -0 -0 -0 -0 -0 -0 -0 -0 -0 -0 -0 -0 -0 -0 -0 -0 -0 -0 -0 -0 -0 -0 -0 -0 -0 -0 -0 -0 -0 -0 -0 -0
nan nan nan nan nan nan nan nan nan nan nan nan nan nan nan nan nan nan nan nan nan nan nan nan nan nan nan nan nan nan nan -0 -0 -0 -0 -0 -0 -0 -0 -0 -0 -0 -0 -0 -0 -0 -0 -0 -0 -0 -0 -0 -0 -0 -0 -0 -0 -0 -0 -0 -0 -0 -0 -0 -0 -0 -0 -0 -0 -0 -0 -0 -0 -0 -0 -0 -0 -0 -0 -0 -0 -0 -0 -0 -0 -0
nan nan nan nan nan nan nan nan nan nan nan nan nan nan nan nan nan nan nan nan nan nan nan nan nan nan nan nan nan nan nan nan -0 -0 -0 -0 -0 -0 -0 -0 -0 -0 -0 -0 -0 -0 -0 -0 -0 -0 -0 -0 -0 -0 -0 -0 -0 -0 -0 -0 -0 -0 -0 -0 -0 -0 -0 -0 -0 -0 -0 -0 -0 -0 -0 -0 -0 -0 -0 -0 -0 -0 -0 -0 -0 -0
nan nan nan nan nan nan nan nan nan nan nan nan nan nan nan nan nan nan nan nan nan nan nan nan nan nan nan nan nan nan nan nan -0 -0 -0 -0 -0 -0 -0 -0 -0 -0 -0 -0 -0 -0 -0 -0 -0 -0 -0 -0 -0 -0 -0 -0 -0 -0 -0 -0 -0 -0 -0 -0 -0 -0 -0 -0 -0 -0 -0 -0 -0 -0 -0 -0 -0 -0 -0 -0 -0 -0 -0 -0 -0 -0
nan nan nan nan nan nan nan nan nan nan nan nan nan nan nan nan nan nan nan nan nan nan nan nan nan nan nan nan nan nan nan nan nan nan nan nan nan nan -0 -0 -0 -0 -0 -0 -0 -0 -0 -0 -0 -0 -0 -0 -0 -0 -0 -0 -0 -0 -0 -0 -0 -0 -0 -0 -0 -0 -0 -0 -0 -0 -0 -0 -0 -0 -0 -0 -0 -0 -0 -0 -0 -0 -0 -0 -0 -0
nan nan nan nan nan nan nan nan nan nan nan nan nan nan nan nan -0 -0 -0 nan nan nan nan nan nan nan nan nan nan nan nan nan nan nan nan nan nan nan -0 -0 -0 -0 -0 -0 -0 -0 -0 -0 -0 -0 -0 -0 -0 -0 -0 -0 -0 -0 -0 -0 -0 -0 -0 -0 -0 -0 -0 -0 -0 -0 -0 -0 -0 -0 -0 -0 -0 -0 -0 -0 -0 -0 -0 -0 -0 -0
nan nan nan nan nan nan nan nan nan nan nan nan nan nan nan -0 -0 -0 nan nan nan nan nan nan nan nan nan nan nan nan nan nan nan nan nan nan nan nan -0 -0 -0 -0 -0 -0 -0 -0 -0 -0 -0 -0 -0 -0 -0 -0 -0 -0 -0 -0 -0 -0 -0 -0 -0 -0 -0 -0 -0 -0 -0 -0 -0 -0 -0 -0 -0 -0 -0 -0 -0 -0 -0 -0 -0 -0 -0 -0
nan nan nan nan nan nan nan nan nan nan nan nan -2 -2 nan nan nan nan nan nan nan nan nan nan nan nan nan nan nan nan nan nan -0 -0 -0 -0 -0 -0 -0 -0 -0 -0 -0 -0 -0 -0 -0 -0 -0 -0 -0 -0 -0 -0 -0 -0 -0 -0 -0 -0 -0 -0 -0 -0 -0 -0 -0 -0 -0 -0 -0 -0 -0 -0 -0 -0 -0 -0 -0 -0 -0 -0 -0 -0 -0 -0
nan nan nan nan nan nan nan nan nan nan -0 -5 nan nan nan nan nan nan nan nan nan nan nan nan nan nan nan nan nan nan nan nan nan nan nan -0 -0 -0 -0 -0 -0 -0 -0 -0 -0 -0 -0 -0 -0 -0 -0 -0 -0 -0 -0 -0 -0 -0 -0 -0 -0 -0 -0 -0 -0 -0 -0 -0 -0 -0 -0 -0 -0 -0 -0 -0 -0 -0 -0 -0 -0 -0 -0 -0 -0 -0
nan nan nan nan nan nan nan nan -0 -0 -1 nan nan nan -0 nan -0 -0 nan nan nan nan nan nan nan nan nan nan nan nan nan nan nan nan nan nan nan nan nan nan nan nan -0 -0 -0 -0 -0 -0 -0 -0 -0 nan -0 -0 -0 -0 -0 -0 -0 -0 -0 -0 -0 -0 -0 -0 -0 -0 -0 -0 -0 -0 -0 -0 -0 -0 -0 -0 -0 -0 -0 -0 -0 -0 -0 -0
nan nan nan nan nan nan nan -0 -0 -0 -3 nan nan nan nan nan nan nan nan nan nan nan nan nan nan nan nan nan nan nan nan nan nan nan nan nan nan nan nan nan nan nan nan nan nan nan nan nan nan nan nan nan nan nan nan nan nan -0 -0 -0 -0 -0 -0 -0 -0 -0 -0 -0 -0 -0 -0 -0 -0 -0 -0 -0 -0 -0 -0 -0 -0 -0 -0 -0 -0 -0
nan nan nan nan nan -0 -0 -0 -0 -0 -0 nan nan nan -0 nan nan nan nan nan nan nan nan nan nan nan nan nan nan nan nan nan nan nan nan nan nan nan nan nan nan nan nan nan nan nan nan nan nan nan nan nan nan nan nan nan nan -0 -0 -0 -0 -0 -0 -0 -0 -0 -0 -0 -0 -0 -0 -0 -0 -0 -0 -0 -0 -0 -0 -0 -0 -0 -0 -0 -0 -0
nan nan nan -0 -0 -0 -0 -0 -0 -0 -0 -0 -0 -0 nan nan nan nan nan nan nan nan -0 -0 -0 -0 nan nan nan nan nan nan nan nan nan nan nan nan nan nan nan nan nan nan nan nan nan nan nan nan nan nan nan nan nan nan nan -0 -0 -0 -0 -0 -0 -0 -0 -0 -0 -0 -0 -0 -0 -0 -0 -0 -0 -0 -0 -0 -0 -0 -0 -0 -0 -0 -0 -0
nan -1 -0 -0 -0 -0 -1 nan -0 -0 -0 -0 -0 -0 nan nan nan nan nan -0 -0 -0 -0 -0 -0 -0 nan nan nan nan nan -0 -0 -0 nan nan nan nan nan nan nan nan nan nan nan nan nan nan nan nan nan nan nan nan nan -0 -0 -0 -0 -0 -0 -0 -0 -0 -0 -0 -0 -0 -0 -0 -0 -0 -0 -0 -0 -0 -0 -0 -0 -0 -0 -0 -0 -0 -0 -0
-0 -0 -0 -0 -0 -0 -0 nan -0 -0 -0 -0 -0 -0 nan nan -0 -0 -0 -0 -0 -0 -0 -0 -0 -0 -0 nan nan nan -0 -0 -0 -0 -0 nan nan nan nan nan nan nan nan nan nan nan nan nan nan nan nan nan nan nan -0 -0 -0 -0 -0 -0 -0 -0 -0 -0 -0 -0 -0 -0 -0 -0 -0 -0 -0 -0 -0 -0 -0 -0 -0 -0 -0 -0 -0 -0 -0 -0
-0 -0 -0 -0 -0 -0 -0 -0 -0 -0 -0 -0 nan nan -0 -0 -0 -0 -0 -0 -0 -0 -0 -0 -0 -0 -0 -0 nan nan -0 -0 -0 -0 -0 nan nan nan nan nan nan nan nan nan nan nan nan nan nan nan nan -0 -0 -0 -0 -0 -0 -0 -0 -0 -0 -0 -0 -0 -0 -0 -0 -0 -0 -0 -0 -0 -0 -0 -0 -0 -0 -0 -0 -0 -0 -0 -0 -0 -0 -0
-0 -0 -0 -0 -0 -0 -0 -0 -0 -0 -0 nan -0 -0 -0 -0 -0 -0 -0 -0 -0 -0 -0 -0 -0 -0 -0 -0 nan nan nan -0 -0 -0 -0 nan nan nan nan nan nan nan nan nan nan nan nan nan nan nan -0 -0 -0 -0 -0 -0 -0 -0 -0 -0 -0 -0 -0 -0 -0 -0 -0 -0 -0 -0 -0 -0 -0 -0 -0 -0 -0 -0 -0 -0 -0 -0 -0 -0 -0 -0
-0 -0 -0 -0 -0 -0 -0 -0 -0 -0 -0 -0 -0 -0 -0 -0 -0 -0 -5 -0 -0 -0 -0 -0 -0 -0 -0 -0 nan nan nan -0 -0 -0 -0 nan nan nan nan nan nan nan nan nan nan nan nan nan nan nan -0 -0 -0 -0 -0 -0 -0 -0 -0 -0 -0 -0 -0 -0 -0 -0 -0 -0 -0 -0 -0 -0 -0 -0 -0 -0 -0 -0 -0 -0 -0 -0 -0 -0 -0 -0
-0 -0 -0 -0 -0 -0 -0 -0 -0 -0 -0 -0 -0 -0 -0 -0 nan nan -0 -0 -0 -0 -0 -0 -0 -0 -0 -0 nan nan -0 -0 -0 -0 -0 -0 nan nan nan nan nan nan nan nan nan nan nan nan nan nan nan -0 -0 -0 -0 -0 -0 -0 -0 -0 -0 -0 -0 -0 -0 -0 -0 -0 -0 -0 -0 -0 -0 -0 -0 -0 -0 -0 -0 -0 -0 -0 -0 -0 -0 -0
-0 -0 -0 -0 -0 -0 -0 -0 -0 -0 -0 -2 -0 -0 -0 -0 nan nan -0 -0 -0 -0 -0 -0 -0 -0 -0 -0 -0 -0 -0 -0 -0 -0 -0 -0 nan nan nan nan nan nan nan nan nan nan nan nan nan nan nan -0 -0 -0 -0 -0 -0 -0 -0 -0 -0 -0 -0 -0 -0 -0 -0 -0 -0 -0 -0 -0 -0 -0 -0 -0 -0 -0 -0 -0 -0 -0 -0 -0 -0 -0
-2 -0 -0 -0 -0 -0 -0 -0 -0 -0 -0 -0 -0 -0 -0 -0 -0 -0 -0 -0 -0 -0 -0 -0 -0 -0 -0 nan -0 -0 -0 -0 -0 -0 -0 -0 nan nan nan nan nan nan nan nan nan nan nan nan nan nan nan -0 -0 -0 -0 -0 -0 -0 -0 -0 -0 -0 -0 -0 -0 -0 -0 -0 -0 -0 -0 -0 -0 -0 -0 -0 -0 -0 -0 -0 -0 -0 -0 -0 -0 -0
-0 -0 -0 -0 -0 -0 -0 -0 -0 -0 nan -0 -0 -0 -0 -0 -0 -0 -0 -0 -0 -0 -0 -0 -0 -0 -0 -0 -0 -0 nan nan -0 -0 -0 -0 nan nan nan nan nan nan nan nan nan nan nan nan nan nan nan -0 -0 -0 -0 -0 -0 -0 -0 -0 -0 -0 -0 -0 -0 -0 -0 -0 -0 -0 -0 -0 -0 -0 -0 -0 -0 -0 -0 -0 -0 -0 -0 -0 -0 -0
-0 -0 -0 -0 -0 -2 -1 -0 -6 -6 -2 -0 -0 -0 -0 -0 -0 -0 -0 -0 -0 -0 -0 -0 -0 -0 -0 -0 nan nan nan nan -0 -0 -0 nan nan nan nan nan nan nan nan nan nan nan nan nan nan nan nan -0 -0 -0 -0 -0 -0 -0 -0 -0 -0 -0 -0 -0 -0 -0 -0 -0 -0 -0 -0 -0 -0 -0 -0 -0 -0 -0 -0 -0 -0 -0 -0 -0 -0 -0
-0 -0 -0 -0 -0 -0 -0 -0 -0 -0 -0 -1 -0 -0 -0 -0 -0 -0 -0 -0 -0 -0 -0 -0 -0 -0 -0 nan nan nan nan nan -0 -0 -0 nan -0 -0 nan nan nan nan nan nan nan -0 nan nan nan nan nan nan -0 -0 -0 -0 -0 -0 -0 -0 -0 -0 -0 -0 -0 -0 -0 -0 -0 -0 -0 -0 -0 -0 -0 -0 -0 -0 -0 -0 -0 -0 -0 -0 -0 -0
-0 -0 -0 -0 -0 -0 -0 -0 -0 -0 -0 -0 -0 -0 -0 -0 -0 -0 -0 -0 -0 -0 -0 -0 -0 -0 -0 nan nan nan nan nan -0 -0 -0 -0 -0 -0 nan nan nan nan nan nan nan -0 -0 nan nan nan nan nan nan nan -0 -0 -0 -0 -0 -0 -0 -0 -0 -0 -0 -0 -0 -0 -0 -0 -0 -0 -0 -0 -0 -0 -0 -0 -0 -0 -0 -0 -0 -0 -0 -0
-0 -0 -0 -0 -0 -0 -0 -0 -0 -0 -0 -0 -0 -0 -0 -0 -0 -0 -0 -0 -0 -0 -0 -0 -0 -0 -0 nan nan nan nan -0 nan nan -0 -0 -0 -0 nan nan nan nan nan -0 -0 -0 -0 -0 -0 nan nan nan nan nan -0 -0 -0 -0 -0 -0 -0 -0 -0 -0 -0 -0 -0 -0 -0 -0 -0 -0 -0 -0 -0 -0 -0 -0 -0 -0 -0 -0 -0 -0 -0 -0
-0 nan -2 -1 -1 -0 -0 -0 -0 -0 -0 -0 -0 -0 -0 -0 -0 -0 -0 -0 -0 -0 -0 -0 -0 -0 -0 -0 nan nan nan nan nan nan -0 -0 -0 -0 nan nan nan -0 nan -0 -0 -0 -0 -0 -0 nan nan nan nan nan nan -0 -0 -0 -0 -0 -0 -0 -0 -0 -0 -0 -0 -0 -0 -0 -0 -0 -0 -0 -0 -0 -0 -0 -0 -0 -0 -0 -0 -0 -0 -0
nan nan nan nan nan nan nan nan nan nan -0 -0 -0 -0 -0 -0 -0 -0 -0 -0 -0 -0 -0 -0 -0 -0 -0 -0 -0 -0 nan nan nan nan nan nan nan nan nan -0 -0 -0 -0 -0 -0 -0 nan nan nan nan nan nan nan nan nan nan nan nan -0 -0 -0 -0 -0 -0 -0 -0 -0 -0 -0 -0 -0 -0 -0 -0 -0 -0 -0 -0 -0 -0 -0 -0 -0 -0 -0 -0
nan nan nan nan nan nan nan nan nan nan nan -0 -0 -0 -0 -0 -0 -0 -0 -0 -0 -0 -0 -0 -0 -0 -0 -0 -0 -0 nan nan nan nan nan -0 -0 -0 -0 -0 -0 -0 -0 nan nan -0 nan nan nan nan nan nan nan nan nan nan nan nan nan nan nan -0 -0 -0 -0 -0 -0 -0 -0 -0 -0 -0 -0 -0 -0 -0 -0 -0 -0 -0 -0 -0 -0 -0 -0 -0
nan nan nan nan nan nan nan nan nan nan nan nan nan nan -0 -0 -0 -0 -0 -0 -0 -0 -0 -0 -0 -0 -0 -0 -0 -0 nan nan -0 -0 -0 -0 -0 -0 -0 -0 -0 -0 -0 -0 -0 -0 nan -0 -0 nan nan nan nan nan nan nan nan nan nan nan nan nan -0 -0 -0 -0 -0 -0 -0 -0 -0 -0 -0 -0 -0 -0 -0 -0 -0 -0 -0 -0 -0 -0 -0 -0
nan nan nan nan nan nan nan nan nan nan nan nan nan nan -0 -0 -0 -0 -0 -0 -0 -0 -0 -0 -0 -0 -0 -0 -0 -0 -0 nan -0 -0 -0 -0 -0 -0 -0 -0 -0 -0 -0 -0 -0 -0 nan -0 -0 nan nan nan nan nan nan nan nan nan nan nan nan nan nan -0 -0 -0 -0 -0 -0 -0 -0 -0 -0 -0 -0 -0 -0 -0 -0 -0 -0 -0 -0 -0 -0 -0
nan nan nan nan nan nan nan nan nan nan nan -0 -0 -0 -0 -0 -0 -0 -0 -0 -0 -0 -0 -0 -0 -0 -0 -0 -0 -0 nan nan -0 -0 -0 -0 -0 -0 -0 -0 -0 -0 -0 -0 -0 nan -0 -0 -0 nan nan nan nan nan nan nan nan nan nan nan nan nan nan nan nan nan -0 -0 nan nan nan nan -0 -0 -0 -0 -0 -0 -0 -0 -0 -0 -0 -0 -0 -0
nan nan nan nan nan nan nan -0 -0 -0 -0 nan nan nan -0 -0 -0 -0 -0 -0 -0 -0 -0 -0 -0 -0 -0 -0 -0 -0 nan nan -0 -0 -0 -0 -0 -0 -0 -0 -0 -0 -0 -0 -0 -0 -0 -0 -0 -0 -0 nan nan nan nan nan nan nan nan nan nan nan nan nan nan -0 -0 nan nan nan nan nan nan nan -0 -0 -0 -0 -0 -0 -0 -0 -0 -0 -0 -0
nan nan nan nan nan nan nan nan nan nan nan nan nan nan -0 -0 -0 -0 -0 -0 -0 -0 -0 -0 -0 -0 -0 -0 -0 -0 -0 nan -0 -0 -0 -0 -0 -0 -0 -0 -0 -0 nan -0 -0 -0 -0 -0 -0 -0 -0 -0 nan nan nan nan nan nan nan nan nan nan nan -0 -0 -0 nan nan nan nan nan nan nan nan nan -0 -0 -0 -0 -0 -0 -0 -0 -0 -0 -0
nan nan nan nan nan nan nan nan nan nan nan nan nan nan -0 -0 -0 -0 -0 -0 -0 -0 -0 -0 -0 -0 -0 -0 -0 -0 -0 -0 -0 -0 -0 -0 -0 -0 nan -0 -0 -0 -0 -0 -0 -0 -0 -0 -0 -0 -0 -0 nan nan nan nan nan nan nan nan nan nan nan -0 -0 -0 -0 -0 -0 -0 nan nan -0 -0 -0 -0 -0 -0 -0 -0 -0 -0 -0 -0 -0 -0
nan nan nan nan nan nan nan nan nan nan nan nan -0 -0 -0 -0 -0 -0 -0 -0 -0 -0 -0 -0 -0 -0 -0 -0 -0 -0 -0 -0 -0 -0 -1 -4 -0 -0 nan -0 -0 -0 -0 -0 -0 -0 -0 -0 -0 -0 -0 nan -0 -0 -0 nan nan -0 nan nan nan nan nan -0 -0 -0 -0 -0 -0 -0 -0 -0 -0 -0 -0 -0 -0 -0 -0 -0 -0 -0 -0 -0 -0 -0
nan nan nan nan nan nan nan nan nan nan -0 -0 -0 -0 -0 -0 -0 -0 -0 -0 -0 -0 -0 -0 -0 -0 -6 -7 -0 -0 -0 -4 nan nan nan -6 -1 -1 -0 -0 -0 -0 -0 -0 -0 -0 -0 -0 -0 nan nan -0 -0 -0 -0 nan nan nan nan -0 -0 nan nan -0 -0 -0 -0 -0 -0 -0 -0 -0 nan nan nan nan nan nan nan nan nan -0 -0 -0 -0 -0
-0 -0 -0 -0 -0 nan nan -0 -0 -0 -0 -0 -0 -0 -0 -0 -0 -0 -0 -0 -0 -0 -0 -0 -0 -0 -0 -0 -0 -0 -0 -10 -4 -4 -9 nan -3 -3 -0 -0 -0 -0 -0 -0 -0 -0 -0 -0 -0 -0 -0 nan nan nan -0 -0 -0 -0 -0 nan nan nan nan -0 -0 -0 -0 -0 -0 -0 -0 -0 -0 -0 nan -0 -0 -0 -0 nan nan -0 -0 -0 -0 -0
-0 -0 -0 -0 -0 -0 -0 -0 -0 -0 -0 -0 -0 -0 -0 -0 -0 -0 -0 -0 -0 -0 -0 -0 -0 -0 -0 -0 -0 -0 -0 -6 -0 -0 nan nan nan nan nan nan nan -0 -0 -0 -0 -0 -0 -0 -0 -0 -0 -0 -0 -0 -0 -0 -0 -0 -0 -0 -0 -0 -0 -0 -0 -0 -0 -0 -0 -0 -0 -0 -0 -0 -0 -0 -0 -0 -0 -0 -0 -0 -0 -0 -0 -0
-0 -0 -0 nan nan nan -0 -0 -0 -0 -0 -0 -0 -0 -0 -0 -0 -0 -0 -0 -0 -0 -0 -0 -0 -0 -0 nan -0 -0 -0 -0 -7 -7 nan nan nan nan nan nan nan nan nan nan nan -0 -0 -0 -0 -0 -0 nan nan nan -0 -0 -0 -0 -0 -0 -0 -0 -0 -0 -0 -0 -0 -0 -0 -0 -0 -0 -0 -0 -0 -0 -0 -0 -0 -0 -0 -0 -0 -0 -0 -0
-0 -0 -0 -0 -0 -0 -0 -0 -0 -0 -0 -0 -0 -0 -0 -0 -0 -0 -0 -0 -0 -0 -0 -0 -0 -0 -0 nan nan nan nan -6 -1 -1 -4 nan nan nan nan nan nan nan nan nan nan nan -0 -0 -0 -0 nan nan nan nan -0 -0 -0 -0 -0 -0 -0 -0 nan nan nan nan -0 -0 -0 -0 -0 -0 -0 -0 -0 -0 -0 -0 -0 -0 -0 -0 -0 -0 -0 -0
-0 -0 -0 -0 -0 -0 -0 -0 -0 -0 -0 -0 -0 -0 -0 -0 -0 -0 -0 -0 -0 -0 -0 -0 -0 -0 -0 nan nan nan nan -0 -1 -1 -0 -1 nan nan nan nan nan nan nan nan nan nan nan -0 -0 -0 -0 nan nan nan -0 -0 -0 -0 -0 -0 -0 nan nan -0 -0 -0 -0 -0 -0 -0 -0 -0 -0 -0 -0 -0 -0 -0 -0 -0 -0 -0 -0 -0 -0 -0
-0 -0 -0 -0 -0 -0 -0 -0 -0 -0 -0 -0 -0 -0 -0 -0 -0 -0 -0 -0 -0 -0 -0 -0 -0 -0 nan nan nan nan nan nan -0 -0 -2 -0 -0 -0 -3 nan nan nan nan nan nan nan nan nan nan -0 -0 nan nan nan nan -0 -0 -0 -0 -0 -0 -0 -0 -0 -0 -0 -0 -0 -0 -0 -0 -0 -0 -0 nan -0 -0 -0 -0 -0 -0 nan nan -0 -0 -0
-0 -0 -0 -0 -0 -0 -0 -0 -0 -0 -0 -0 -0 -0 -0 -0 -0 -0 -0 -0 -0 -0 -0 -0 -0 -0 -0 -0 nan nan nan nan nan nan nan -0 -0 -0 -0 -0 -0 nan nan nan nan nan nan nan nan nan nan nan -0 -0 -0 nan nan nan -0 -0 -0 -0 -0 -0 -0 -0 -0 -0 -0 -0 -0 -0 -0 -0 nan -0 -0 -0 -0 -0 -0 nan nan nan nan nan
-0 -0 -0 -0 -0 -0 -0 -0 -0 -0 -0 -0 -0 -0 -0 -0 -0 -0 -0 -0 -0 -0 -0 -0 -0 -0 -0 -0 nan nan nan nan nan nan nan nan -0 -0 -0 -0 -0 -0 nan nan nan nan nan nan nan nan nan nan -0 -0 -0 nan nan nan nan -0 -0 -0 -0 -0 -0 -0 -0 -0 -0 -0 -0 -0 -1 -1 -0 -0 -0 -0 -1 -0 -0 -0 -0 nan nan -0
-0 -0 -0 -0 -0 -0 -0 -0 -0 -0 -0 -0 -0 -0 -0 -0 -0 -0 -0 -0 -0 -0 -0 -0 -0 -0 -0 -0 -0 -0 -0 nan nan nan nan nan nan nan -0 -0 -0 -0 -0 -1 -1 -0 nan nan nan nan nan nan nan nan -0 -0 -0 nan nan -0 -0 nan nan -0 -0 -0 -0 -0 nan nan -3 -0 -0 -0 -0 -0 nan nan -0 -0 -0 -0 -0 -0 -0 -0
-0 -0 -0 -0 -0 -0 -0 -0 -0 -0 -0 -0 -0 -0 -0 -0 -0 -0 -0 -0 -0 -0 -0 -0 -0 -0 -0 -0 -0 -0 -0 -0 -0 -0 -0 nan nan nan -0 -0 -0 -0 -0 -0 -0 -0 -0 -4 -4 -0 nan nan nan nan -0 -0 -0 nan nan nan nan -0 nan nan nan nan nan nan nan nan nan nan nan nan -0 -0 -0 -0 -0 -0 -0 -0 -0 -0 -0 -0
-0 -0 -0 -0 -0 -0 -0 -0 -0 -0 -0 -0 -0 -0 -0 -0 -0 -0 -0 -0 -0 -0 -0 -0 -0 -0 -0 nan -0 -0 -0 -0 -0 -0 -0 nan nan nan -0 -0 -0 -0 -0 -0 -0 -0 -0 -5 -5 -6 -1 -0 nan nan -0 nan nan -0 -0 -0 -0 -0 -0 nan nan nan nan nan nan nan nan nan nan nan nan nan -0 -0 -0 -1 -1 -0 -0 -0 -0 -0
-0 -0 -0 -0 -0 -0 -0 -0 -0 -0 -0 -0 -0 -0 -0 -0 -0 -0 -0 -0 -0 -0 nan nan nan -0 -0 -0 -0 -0 -0 -0 -0 -0 nan -0 nan nan -0 -0 -0 nan -0 -0 -0 -0 -0 nan nan nan -0 -0 -4 -4 nan nan nan nan -0 nan nan nan nan -0 -0 -0 -0 -0 -6 -6 -9 -6 -1 -1 nan nan -0 -0 -1 -1 -1 -0 -0 -0 -0 -0
Wind_Speed
1 1 1 2 1 1 1 2 2 4 5 5 5 5 5 6 6 7 9 9 9 9 8 9 9 10 11 13 15 17 18 19 20 20 20 20 20 20 20 19 19 19 19 19 19 19 19 19 19 19 19 19 19 19 19 19 19 19 20 20 20 20 21 21 22 22 22 22 22 22 22 22 22 23 23 23 23 24 24 24 25 25 25 25 25 26
1 1 1 2 2 2 2 3 3 4 5 6 6 6 6 7 6 6 7 8 9 9 8 8 9 10 11 12 14 16 18 19 20 20 20 20 20 20 20 20 20 19 19 19 19 19 19 19 19 19 19 19 19 19 19 19 19 19 20 20 20 20 21 21 22 22 22 22 22 22 22 23 23 23 23 24 24 24 25 25 25 26 26 26 26 26
1 1 1 2 2 2 3 3 4 4 5 5 6 6 7 7 7 6 6 7 7 8 8 8 8 9 10 11 13 16 17 19 20 20 20 20 20 20 20 20 20 19 19 19 19 19 19 18 18 18 18 18 19 19 19 19 19 19 20 20 20 20 21 21 22 22 22 22 22 22 23 23 23 23 24 24 24 25 25 25 26 26 26 26 26 26
1 1 1 1 2 2 3 3 4 3 4 4 5 6 6 6 6 6 6 7 7 7 7 8 8 8 9 9 11 14 17 19 20 20 20 20 20 20 20 20 20 19 19 19 19 19 18 18 18 18 19 19 19 19 19 19 20 20 20 20 21 21 21 22 22 22 22 23 23 23 23 23 23 23 24 24 24 25 25 25 25 25 25 25 26 26
1 1 1 1 2 2 3 3 3 3 3 3 4 5 5 5 6 6 6 7 7 7 7 7 8 8 8 8 10 13 17 19 20 20 21 20 20 20 20 20 19 19 19 19 19 19 19 19 19 19 19 19 19 20 20 20 20 20 21 21 21 21 22 22 22 23 23 23 23 23 23 23 23 23 24 24 24 24 25 25 25 25 25 25 25 25
1 1 1 1 2 2 2 2 2 2 3 3 4 5 5 5 5 5 6 6 6 6 6 7 7 8 8 9 11 13 16 18 19 20 20 20 20 20 19 19 19 19 19 19 19 19 19 19 19 19 20 20 20 20 20 21 21 21 21 22 22 22 22 22 22 23 23 23 23 23 23 23 23 23 23 23 24 24 24 24 24 24 24 25 25 25
1 1 1 1 2 2 2 2 2 2 3 4 4 5 5 5 5 5 5 5 5 6 6 7 7 8 9 9 11 13 14 16 17 18 18 18 18 18 18 18 18 19 19 19 19 19 19 19 20 20 20 20 21 21 21 21 22 22 22 22 22 22 22 22 22 22 22 22 22 22 22 22 22 23 23 23 23 23 23 23 24 24 24 24 24 25
2 2 1 2 2 2 2 2 2 2 3 4 5 5 5 4 4 5 5 5 5 5 6 7 7 7 8 9 10 10 11 12 12 13 14 15 15 16 16 17 18 18 19 19 19 19 19 20 20 20 21 21 21 22 22 22 22 22 22 22 22 22 22 22 22 22 22 22 22 22 22 22 22 22 22 22 22 23 23 23 23 24 24 24 24 24
3 3 2 2 2 3 3 3 2 3 3 4 5 5 5 5 5 4 5 5 5 5 6 6 7 7 8 8 8 9 9 10 10 10 11 11 11 13 14 15 16 17 18 19 19 20 20 20 21 21 21 22 22 22 22 22 22 22 22 22 22 21 21 21 21 21 21 21 21 21 21 21 22 22 22 22 22 22 22 23 23 23 24 24 24 25
3 3 3 3 2 2 3 4 4 3 4 4 4 4 4 5 5 6 6 6 5 5 5 6 7 7 8 8 8 8 9 10 11 12 12 12 13 14 15 15 15 16 18 18 19 20 20 21 21 21 22 22 22 22 22 22 22 21 21 21 21 21 21 21 21 21 21 21 21 21 21 21 21 22 22 22 22 22 23 23 23 23 24 24 24 25
3 3 3 2 2 2 2 3 4 4 4 3 3 2 2 3 4 6 7 7 7 6 5 6 6 7 7 7 8 8 8 8 9 10 12 13 14 15 15 15 15 15 17 18 19 19 20 20 21 21 22 22 22 22 21 21 21 21 21 21 21 21 21 21 21 21 22 21 21 21 22 22 22 22 22 22 23 23 23 23 23 23 23 24 24 25
2 2 2 2 2 2 2 3 3 3 2 2 2 2 3 3 4 5 7 8 8 7 6 6 6 6 7 8 8 7 7 7 7 7 8 9 10 10 10 11 11 12 14 15 16 17 18 19 20 20 20 20 21 21 20 20 20 21 21 21 21 21 21 22 22 22 22 22 22 22 22 22 22 22 23 23 23 23 23 23 24 24 24 24 24 25
2 2 2 2 2 3 3 3 3 2 1 1 2 4 4 4 5 5 6 7 7 7 7 7 6 7 7 7 7 7 7 7 7 7 6 7 7 7 6 7 8 8 9 10 11 12 15 16 17 18 18 19 19 20 20 20 20 21 21 21 22 22 22 22 22 22 22 22 22 23 23 23 23 23 23 23 24 24 24 24 24 24 24 24 25 25
2 2 2 3 3 3 3 4 3 2 1 2 3 4 5 5 5 6 6 7 7 7 7 7 7 7 6 7 7 6 6 6 6 6 6 6 6 6 6 7 7 8 8 8 9 10 12 13 13 14 16 17 18 18 18 19 20 21 21 22 22 22 22 22 23 23 23 23 23 23 23 23 23 24 24 24 24 24 24 24 24 24 24 25 25 25
2 2 3 4 4 4 3 3 3 3 3 3 4 5 5 5 6 6 6 6 6 6 6 7 7 7 5 5 5 5 6 6 6 6 7 7 7 7 7 8 8 8 8 8 9 9 11 11 10 11 12 14 16 17 18 19 21 22 22 23 23 23 23 23 23 23 23 23 23 23 23 23 24 24 24 24 24 24 24 24 24 24 24 25 25 25
2 3 4 5 5 4 2 2 3 4 4 4 5 5 6 6 5 5 6 6 6 6 6 7 7 7 5 5 5 5 5 5 6 7 8 8 7 7 8 8 8 8 8 8 9 9 9 9 10 10 11 14 17 19 21 21 22 23 23 24 24 24 24 24 24 24 24 24 24 24 24 24 24 24 24 24 24 24 24 24 24 24 24 24 25 25
3 3 4 4 4 3 2 2 3 4 5 5 5 5 5 5 5 5 6 6 5 5 5 5 6 6 5 5 4 4 5 5 6 6 8 8 8 8 8 8 8 8 8 8 8 8 8 9 9 10 11 14 18 20 22 23 23 24 24 25 25 24 24 24 24 24 24 24 24 24 24 24 24 24 24 24 24 24 24 24 24 24 24 24 24 25
3 2 2 3 3 3 4 4 4 4 5 5 5 5 5 5 5 6 6 6 6 5 5 5 5 5 5 5 5 4 5 6 6 7 8 8 8 8 7 7 8 8 8 8 8 8 8 9 9 10 12 17 20 22 23 24 25 25 25 25 25 25 25 25 25 24 24 24 24 24 24 24 24 24 24 24 24 24 24 24 24 24 24 24 24 24
3 2 3 4 4 4 5 5 5 5 4 5 5 5 6 6 6 6 6 5 6 6 6 5 5 5 6 7 6 6 6 7 7 7 8 8 8 8 7 7 7 8 8 9 9 8 8 9 11 13 16 20 22 23 24 24 25 25 25 25 25 25 25 25 25 25 25 25 25 25 24 24 24 24 24 24 24 24 24 24 24 24 24 24 24 24
4 4 4 5 5 5 5 5 5 5 5 5 6 6 6 6 6 6 6 5 5 5 4 5 6 6 6 8 8 8 7 7 7 7 7 8 9 8 7 7 7 8 8 8 8 8 8 9 10 13 17 19 21 22 23 24 25 25 25 25 25 25 25 25 25 25 25 25 25 25 25 24 24 24 24 24 24 24 24 24 24 24 24 24 24 24
5 5 5 5 5 5 4 4 5 6 6 7 7 7 7 7 6 6 5 5 5 4 4 5 6 6 6 8 9 8 8 7 7 6 5 7 7 7 6 6 7 8 8 8 8 8 8 9 9 10 13 17 20 22 23 24 25 25 25 25 26 26 25 25 25 25 25 25 25 25 25 24 24 24 24 24 24 24 24 24 24 24 24 24 24 24
4 5 5 5 5 5 4 5 6 8 9 9 8 7 6 6 6 5 5 4 5 5 5 6 7 7 8 9 9 9 8 7 6 5 5 6 7 8 6 6 6 8 8 8 8 8 9 9 9 10 13 18 21 22 24 24 25 25 25 26 26 26 25 25 25 25 25 25 25 25 25 25 25 24 24 24 24 24 24 24 24 24 24 24 24 24
4 5 5 5 5 5 5 6 7 8 9 8 8 7 5 5 5 5 5 5 5 6 6 7 7 8 9 9 9 8 7 6 5 5 5 7 8 7 5 6 6 7 8 8 8 8 9 9 9 11 14 18 21 22 23 24 24 25 25 25 25 25 25 25 25 25 25 25 25 25 25 25 25 24 24 24 24 24 24 24 24 24 24 24 24 24
5 5 5 4 4 4 5 6 6 6 6 6 6 5 5 5 5 5 5 6 6 7 7 7 8 8 8 8 8 7 6 5 4 4 4 6 7 7 6 6 7 8 8 8 8 9 9 10 10 10 11 16 19 21 23 23 24 24 25 25 25 25 25 25 25 25 25 25 25 25 25 25 25 25 25 25 24 24 24 24 24 24 24 24 24 24
5 5 5 5 5 6 7 7 6 6 5 4 4 4 4 6 7 7 7 7 7 7 6 7 8 8 7 7 7 6 5 4 3 4 4 5 6 7 6 6 7 8 8 8 8 9 9 10 10 10 10 13 17 20 21 22 23 24 24 24 25 25 25 25 25 25 25 25 25 25 25 25 25 25 25 25 25 24 24 24 24 24 24 24 24 24
7 7 7 8 9 10 11 11 11 11 11 9 8 7 7 8 8 7 7 7 6 6 6 7 7 7 6 6 6 5 4 3 3 4 4 4 6 7 6 6 7 8 8 8 8 8 9 10 10 10 10 11 14 17 20 21 22 23 23 24 24 24 24 25 25 25 25 25 25 25 26 25 25 25 25 25 25 24 24 24 24 24 24 24 24 23
9 9 10 11 11 12 13 14 15 16 17 15 13 11 9 8 7 7 7 6 5 5 6 6 7 7 6 6 6 5 5 4 4 4 4 5 6 6 6 6 6 7 9 8 8 8 10 10 10 10 10 10 11 14 17 19 21 22 23 24 24 24 25 25 25 25 25 25 25 25 25 25 25 25 25 25 24 24 24 24 24 24 24 23 21 19
8 9 9 10 11 12 13 14 14 15 15 16 16 14 11 7 6 6 6 5 5 5 5 6 6 6 6 6 6 6 6 5 4 4 4 4 5 6 6 6 7 7 8 7 8 9 10 10 10 10 10 10 10 11 14 17 19 20 22 23 24 24 24 25 25 25 25 25 25 25 25 25 25 25 25 24 24 24 24 24 24 23 22 19 15 12
7 8 9 10 11 12 12 12 12 13 14 14 14 12 9 6 5 5 5 4 4 5 6 6 6 6 6 7 7 7 6 5 4 3 2 3 4 5 6 6 7 7 7 7 7 7 8 8 8 8 8 9 10 10 11 14 16 17 18 21 22 23 23 23 24 24 24 24 24 25 25 25 24 24 24 24 24 24 24 24 23 21 17 14 11 10
5 6 7 8 9 9 9 9 9 10 12 12 12 11 8 5 4 4 4 4 5 5 6 6 6 6 6 6 7 6 5 4 2 1 1 3 4 5 6 7 7 6 6 6 6 6 6 6 6 7 8 9 10 9 10 11 11 12 13 16 17 19 20 21 22 23 23 24 24 24 24 24 24 24 24 24 24 24 24 24 22 18 12 10 9 9
4 5 5 6 6 6 6 6 7 7 9 9 9 8 6 5 4 4 4 4 5 5 6 6 6 6 6 5 5 5 4 3 2 2 3 4 4 5 6 7 7 6 5 5 5 6 6 6 5 6 8 9 9 10 10 10 10 10 10 11 12 14 17 19 20 21 21 22 23 23 24 24 24 24 24 24 24 24 24 24 21 17 11 10 9 9
4 4 4 4 4 4 4 5 5 5 5 6 6 6 5 5 5 4 4 4 5 5 5 6 6 6 6 6 6 5 5 4 5 6 6 5 4 5 6 6 7 7 5 5 5 6 6 6 6 7 8 9 9 9 10 10 10 10 10 10 10 11 15 16 17 18 18 19 20 21 22 23 23 23 23 23 23 23 23 24 21 17 11 10 9 10
4 4 4 4 4 4 4 4 4 4 4 4 4 4 5 5 5 5 4 4 4 5 5 6 6 7 7 7 7 7 6 6 7 7 7 5 4 5 5 6 7 7 6 6 6 6 6 7 7 8 8 8 9 9 9 10 10 9 9 10 10 10 13 13 13 14 14 15 16 17 19 20 21 21 22 22 22 23 23 23 21 19 14 11 9 9
4 4 4 4 4 4 4 4 4 4 4 4 4 4 4 4 4 5 5 5 5 5 5 6 6 7 7 7 8 8 8 7 7 8 7 5 5 5 6 7 7 7 7 6 6 6 6 8 8 8 8 8 8 8 9 9 9 9 9 9 9 10 10 11 11 11 12 12 12 13 14 15 16 18 19 20 20 20 21 21 21 20 18 14 11 10
4 5 5 4 4 4 4 4 4 4 4 4 4 4 4 4 4 5 5 5 5 5 5 6 6 7 7 7 8 8 8 8 8 8 8 6 5 5 6 7 7 7 7 7 7 6 6 8 9 9 9 9 9 8 8 8 9 9 9 9 9 10 10 10 10 10 11 11 11 11 11 11 11 13 14 16 17 18 20 21 21 21 21 19 16 13
4 5 5 4 4 4 4 4 4 4 4 4 4 4 4 5 5 5 5 5 5 6 6 6 7 7 7 7 8 9 9 9 9 9 9 7 6 6 6 6 7 7 7 8 8 7 7 9 10 10 10 10 9 8 8 8 8 9 9 9 9 10 10 10 10 10 10 10 10 10 10 10 10 11 11 15 17 19 20 21 21 22 22 22 21 18
4 5 5 4 4 5 5 5 4 4 4 4 4 4 5 5 5 5 6 6 6 6 7 8 8 8 9 9 9 9 10 10 10 10 11 9 8 7 7 7 8 8 8 8 8 8 8 9 10 10 10 10 9 8 8 8 9 9 9 9 9 10 10 10 10 10 10 11 11 11 10 10 10 11 11 15 16 18 19 20 20 20 21 21 21 21
5 5 5 4 4 4 5 5 5 4 5 5 5 5 6 6 6 7 6 7 7 7 7 7 8 9 12 12 12 12 12 13 13 13 13 11 9 8 8 8 9 9 8 8 8 8 8 9 10 10 9 9 10 10 10 10 10 10 10 10 10 10 10 10 10 10 10 10 11 11 11 11 11 10 11 12 12 12 12 13 14 15 17 18 19 20
5 5 5 5 5 5 5 5 5 5 5 5 6 6 6 7 7 7 7 7 7 8 8 8 8 9 10 11 13 14 14 14 14 13 13 11 10 9 9 9 9 10 9 9 8 8 9 9 9 9 9 9 10 11 10 10 10 11 11 10 10 10 10 10 10 9 10 10 11 11 11 11 10 10 10 10 9 9 10 10 10 11 12 11 13 15
5 5 5 5 5 5 5 5 5 5 6 6 6 7 6 6 6 6 7 7 7 7 8 9 9 8 9 10 11 12 13 11 11 11 11 10 9 9 9 9 9 10 9 9 9 9 9 9 10 11 11 10 10 10 10 10 11 11 11 10 9 9 10 10 10 10 10 10 10 11 10 10 10 10 10 9 9 9 9 9 9 10 10 9 9 10
5 5 5 5 5 5 5 6 6 6 6 6 6 6 5 6 6 6 6 6 6 7 7 7 8 8 9 9 9 10 11 11 11 11 10 10 10 10 9 9 9 9 9 9 9 9 9 10 11 11 11 11 11 12 12 12 13 14 13 11 11 10 11 11 11 10 10 10 10 10 10 11 11 10 10 10 10 10 9 9 10 10 9 9 8 8
5 5 5 5 5 5 5 6 6 6 6 6 6 5 5 5 5 6 6 6 6 6 6 6 7 8 9 9 9 9 9 9 10 10 10 10 11 11 10 9 9 9 9 9 10 10 10 10 11 11 11 11 11 11 12 13 13 13 13 12 12 12 12 12 10 10 9 10 9 10 11 11 10 10 10 10 10 10 10 10 11 11 11 10 9 9
5 5 5 5 5 5 6 6 6 6 5 5 5 5 5 5 5 6 6 6 7 7 7 7 7 8 9 9 9 8 8 8 8 9 9 9 10 10 11 11 10 9 8 9 10 10 11 11 11 11 11 11 11 11 12 13 13 13 12 12 12 10 8 8 8 9 9 10 10 10 10 10 10 10 10 10 10 10 10 11 12 13 12 11 10 10
5 5 5 5 5 5 5 5 5 5 5 5 6 6 6 6 6 6 6 6 7 7 7 7 7 8 9 9 9 9 8 7 7 8 8 9 10 10 10 11 11 11 10 9 9 10 10 11 11 11 11 10 11 11 12 12 13 13 12 12 12 11 9 9 10 10 10 10 10 10 11 11 10 10 10 10 10 10 10 10 10 11 12 11 11 10
5 5 5 5 5 5 5 5 5 5 5 6 6 6 6 6 6 6 6 7 7 7 7 7 7 7 8 8 9 9 8 8 7 7 7 9 10 11 11 10 10 10 10 10 10 9 9 10 11 11 10 10 10 11 12 12 13 13 13 13 12 12 12 12 11 11 11 11 11 11 11 11 11 10 10 10 10 10 10 10 10 10 10 10 10 11
5 5 5 5 5 5 6 6 6 5 5 6 6 6 6 6 6 6 6 7 7 7 7 6 6 7 8 8 9 9 9 9 8 8 7 7 8 8 9 9 9 9 8 9 10 10 10 10 11 11 10 10 11 12 12 12 12 12 13 13 12 12 12 11 11 11 11 11 11 12 12 12 11 10 10 10 10 10 10 10 10 11 11 10 10 11
5 5 5 5 5 5 6 6 6 6 6 6 6 6 6 6 6 6 6 6 7 7 7 7 7 7 8 9 9 9 9 10 10 9 8 8 8 8 8 8 8 9 9 9 10 10 11 11 11 11 11 11 11 12 12 12 12 12 12 12 12 11 11 11 11 11 11 11 12 12 13 12 11 11 11 11 11 10 10 10 10 11 11 10 10 10
5 5 5 5 6 6 6 6 5 6 6 6 6 6 6 6 6 7 6 6 6 6 7 7 7 8 8 9 9 9 9 10 10 10 10 9 9 8 8 8 8 8 9 10 11 11 12 12 13 13 12 11 12 12 13 12 12 12 12 11 11 11 12 12 11 11 11 12 12 12 12 11 10 11 11 11 11 10 10 10 10 10 10 10 10 10
5 5 6 6 6 6 6 6 6 6 6 6 6 6 6 6 7 7 6 6 6 6 7 7 8 8 8 8 9 9 10 10 10 10 10 9 9 9 8 8 8 8 9 9 10 10 11 12 13 13 13 12 12 13 13 13 12 12 11 11 11 11 12 12 12 11 11 12 12 12 11 10 10 10 10 11 11 11 11 11 10 10 9 9 10 10
5 5 6 6 6 6 6 6 6 6 6 7 7 7 6 6 6 6 6 6 6 6 7 7 8 8 9 9 9 9 10 10 10 9 9 9 8 8 9 9 9 9 9 9 9 9 8 8 9 11 13 14 14 13 13 13 12 12 11 11 10 10 11 11 11 11 11 11 11 11 11 10 10 9 9 10 12 12 12 11 11 10 9 9 9 10
5 6 6 6 6 6 6 6 6 6 7 7 7 7 7 6 6 6 6 6 6 7 7 7 8 8 9 9 10 10 10 9 10 10 10 9 9 9 9 9 9 9 9 9 8 8 7 7 7 8 9 12 14 14 12 12 11 11 11 10 10 10 10 10 11 11 12 11 11 10 10 10 10 9 9 9 10 11 12 12 11 10 9 9 9 9
Wind_Direction
230 175 151 172 196 230 234 217 246 273 285 291 297 304 309 311 310 309 307 305 302 300 299 298 297 297 297 297 298 299 301 302 302 302 302 302 302 302 302 302 302 301 301 301 301 300 299 298 297 296 295 294 294 293 293 292 292 291 291 291 291 291 290 290 290 290 290 291 291 292 292 293 293 294 294 293 293 292 291 290 289 288 286 286 285 284
208 192 167 172 194 234 261 232 238 260 283 295 303 309 314 313 311 308 305 301 298 297 297 297 297 297 297 297 298 299 300 301 302 302 302 302 302 302 303 303 302 302 302 301 301 300 299 298 297 296 295 295 294 293 293 292 292 292 291 292 292 292 292 291 291 291 292 292 292 292 292 292 292 292 291 290 289 288 287 286 285 284 283 283 282 282
185 192 186 175 192 227 263 255 252 259 279 295 304 309 312 309 306 303 301 299 298 297 296 296 296 296 297 297 298 299 300 301 302 302 303 303 303 303 303 303 303 302 302 301 301 300 299 298 297 297 296 295 295 294 294 293 293 293 293 293 293 293 293 293 293 293 293 292 292 292 292 291 290 290 289 287 286 285 284 283 282 282 281 281 281 280
213 217 211 198 213 231 251 265 271 276 285 296 303 304 303 300 297 295 295 295 295 295 294 293 294 295 296 296 298 299 300 301 302 302 303 303 304 304 304 303 303 302 302 301 301 300 299 299 298 298 297 296 295 295 295 295 295 294 295 295 295 294 294 294 294 293 293 292 292 291 290 290 289 288 286 285 284 283 282 282 281 281 281 281 280 280
212 216 215 229 242 246 244 258 273 287 298 300 299 297 292 289 289 291 292 292 291 292 293 294 295 295 296 296 297 298 299 301 301 302 303 303 303 303 303 302 302 302 301 301 300 300 299 299 298 298 297 297 296 296 296 296 296 296 296 296 296 295 295 295 294 293 293 292 291 290 289 288 287 286 285 284 283 282 282 281 281 281 280 280 279 279
217 211 211 242 261 271 271 271 283 296 304 300 296 292 288 286 285 286 287 288 290 291 295 297 297 297 295 294 295 297 298 299 300 301 301 301 300 300 300 300 300 300 300 300 299 299 299 299 298 298 298 298 297 297 297 297 297 297 297 296 296 296 295 295 294 293 292 291 290 289 287 286 285 284 283 283 282 282 281 281 280 280 280 279 279 278
242 220 223 252 267 277 285 286 292 299 304 301 299 295 290 285 282 281 282 285 289 292 295 295 296 295 294 293 294 296 297 298 298 298 298 298 297 297 297 298 298 298 298 298 298 298 298 298 298 298 298 298 298 298 298 298 298 298 297 297 296 296 295 294 293 292 291 289 288 287 286 285 284 283 282 282 281 281 281 280 280 279 279 278 278 277
263 255 251 264 273 279 281 281 283 289 294 297 299 297 293 290 287 284 282 281 283 287 292 294 295 295 295 296 296 296 296 296 296 295 295 295 294 295 295 296 296 297 297 297 297 297 298 298 298 298 298 299 299 298 298 298 298 298 298 297 296 296 295 293 292 291 290 288 287 286 285 284 283 282 281 281 280 280 279 279 278 278 277 277 277 276
266 270 269 269 278 287 291 288 284 283 285 288 291 294 297 298 297 293 288 283 283 287 294 298 299 298 298 298 298 296 294 292 291 291 291 292 293 294 294 296 296 297 297 297 297 298 298 298 298 299 299 298 298 298 298 298 298 298 297 297 296 295 294 293 292 291 290 288 287 286 284 283 282 281 280 279 278 278 277 277 276 276 276 276 276 276
259 267 275 273 273 278 288 291 291 287 279 280 283 288 294 298 299 300 298 296 296 298 299 300 300 300 300 298 297 295 292 289 287 287 287 288 290 291 293 294 295 296 296 297 297 298 298 298 298 298 298 298 297 297 297 297 297 297 297 296 295 295 294 293 292 291 289 288 286 285 283 282 281 280 279 278 277 277 276 276 276 275 276 276 276 276
255 261 269 272 265 258 262 280 287 288 280 279 277 274 268 282 296 303 305 305 306 305 303 300 299 299 299 298 296 295 293 290 288 287 286 286 287 288 289 290 292 293 295 296 297 297 297 297 298 297 297 297 296 296 296 296 296 296 296 296 295 294 293 292 290 289 288 287 285 284 283 281 280 279 279 278 277 277 276 276 276 276 276 276 276 276
262 265 265 271 273 272 269 276 279 279 278 278 281 280 274 283 297 305 306 306 306 306 304 301 297 294 293 294 294 293 292 291 290 290 288 288 287 287 288 290 291 293 294 295 295 296 296 297 297 297 296 296 295 295 295 296 295 295 295 294 293 292 291 290 289 288 287 286 285 284 283 282 281 281 280 279 279 278 277 277 277 277 277 276 276 276
256 260 264 273 279 281 281 283 282 280 271 279 294 299 302 306 308 305 301 301 302 303 302 300 296 291 288 287 287 288 289 290 292 293 294 293 293 292 294 294 295 295 296 296 295 296 297 297 297 296 296 295 295 294 295 294 294 294 293 292 292 291 290 289 289 288 287 287 286 285 285 284 283 282 281 280 280 279 278 277 277 276 276 275 275 275
256 257 267 275 278 279 279 285 291 294 291 293 300 304 306 308 307 303 298 296 297 298 297 295 294 292 288 283 281 282 287 291 294 296 297 298 300 302 302 301 300 300 300 299 297 297 298 299 298 296 295 294 293 293 293 293 292 292 292 291 291 291 290 290 290 289 288 288 287 286 286 285 284 283 282 281 280 279 278 277 277 276 275 274 274 273
265 270 276 279 280 282 286 294 298 300 300 304 306 306 305 303 301 299 298 297 297 298 296 293 292 290 288 286 285 286 288 293 298 300 301 301 303 305 305 303 301 300 299 297 296 295 297 296 295 293 292 291 291 291 291 292 292 292 292 292 292 292 291 291 291 290 290 289 288 287 286 285 284 283 283 282 281 280 279 278 277 276 275 275 274 273
264 268 274 281 286 291 303 307 305 303 305 307 306 305 303 301 300 299 297 297 297 297 296 297 297 295 291 292 292 293 294 297 300 303 304 303 303 305 306 303 300 298 296 294 294 294 295 293 291 290 289 289 290 291 291 291 292 292 292 292 292 292 292 292 291 290 290 289 288 287 286 285 284 284 283 283 282 281 280 280 279 278 276 276 275 274
269 274 281 290 297 302 307 301 302 304 306 304 303 301 299 299 298 296 294 293 293 294 294 298 300 302 302 301 299 300 304 305 306 305 304 302 302 303 304 301 298 295 293 291 290 291 291 289 288 287 287 288 289 290 291 291 292 292 292 293 293 292 292 292 291 291 290 289 288 288 287 286 286 285 284 284 283 282 282 281 280 279 278 277 276 275
284 292 302 301 300 300 301 300 301 302 302 302 300 298 295 292 290 287 284 285 286 288 290 291 294 298 301 301 303 309 317 315 311 307 303 299 299 300 300 296 293 290 289 287 287 286 287 286 285 285 285 287 288 289 290 291 291 291 292 292 292 292 292 292 292 291 291 291 290 289 289 288 287 286 286 285 284 284 283 282 281 280 279 278 277 276
296 296 292 291 294 297 300 302 304 305 304 304 303 301 295 288 283 279 276 276 278 280 284 286 288 289 291 293 298 308 318 316 312 307 302 298 297 297 298 293 289 287 286 286 286 286 287 285 285 284 285 286 287 288 289 290 290 291 291 291 292 292 292 293 293 293 292 292 291 290 290 289 288 287 286 286 285 284 284 283 282 281 280 279 277 276
298 294 294 296 297 298 297 298 301 303 303 300 296 292 287 284 281 278 276 276 275 275 277 279 282 285 288 291 297 305 314 315 310 304 298 295 294 293 295 292 289 288 286 286 287 287 287 285 284 284 284 285 286 287 288 289 289 290 291 291 292 293 293 293 293 293 293 292 292 291 290 289 288 287 287 286 285 285 284 283 282 281 281 280 279 277
295 292 291 294 296 295 293 295 297 297 296 293 289 285 282 281 279 277 277 278 277 274 272 276 282 288 293 294 297 302 310 310 307 301 296 292 290 290 293 291 289 287 286 286 287 287 286 285 284 284 285 285 286 287 288 288 289 290 291 292 292 293 293 293 293 293 292 292 292 291 290 289 288 288 287 286 285 285 284 284 283 283 282 281 281 280
291 290 292 293 291 290 291 295 295 293 288 283 279 276 276 276 277 279 281 281 280 280 281 285 290 293 293 291 293 296 303 301 299 297 295 289 287 288 291 290 288 287 286 287 288 288 287 286 286 286 286 287 287 287 288 289 289 290 291 291 292 292 292 292 292 292 292 291 291 290 290 289 288 287 287 286 286 285 285 285 285 284 284 283 283 282
280 286 292 292 290 289 289 288 285 280 277 273 270 268 268 271 276 281 286 287 289 291 293 293 291 289 286 285 287 289 292 291 290 290 288 285 286 288 292 293 290 287 286 289 291 292 291 289 288 288 288 288 288 288 289 289 290 290 291 291 292 292 292 292 292 291 291 291 290 290 289 289 288 288 288 287 287 287 287 287 286 286 285 284 284 283
284 289 293 290 285 278 274 273 270 267 265 263 263 262 263 267 274 282 288 291 293 293 292 290 288 285 282 283 284 286 287 287 284 280 279 280 284 288 295 295 292 289 287 290 293 295 294 291 289 288 288 288 288 289 289 290 290 290 291 291 291 291 291 291 291 291 291 291 291 291 290 290 290 290 290 289 289 288 288 287 286 286 285 284 283 281
294 292 290 284 278 275 274 274 275 278 281 278 277 278 282 286 289 291 292 291 291 290 289 288 287 285 285 287 288 287 288 283 274 269 272 278 283 287 293 294 291 290 289 293 295 295 293 291 290 289 289 289 289 290 290 290 291 291 291 291 291 291 291 291 291 291 292 292 292 292 292 292 291 291 290 289 289 288 287 286 285 285 284 283 282 281
299 296 295 296 297 298 300 302 304 307 309 308 307 306 304 301 298 295 291 289 289 290 291 288 287 287 290 290 290 289 290 279 265 260 269 277 284 288 290 291 290 290 291 293 294 294 293 292 292 292 291 291 291 291 291 291 291 291 291 291 291 291 292 292 292 292 292 292 292 292 291 291 290 289 289 288 287 286 286 285 285 284 284 283 282 281
309 309 310 312 314 315 315 314 312 310 308 306 304 302 301 299 295 290 285 287 292 295 293 289 289 290 292 290 288 289 293 290 279 270 270 277 282 286 289 292 293 293 293 294 295 295 294 293 292 292 291 291 291 291 291 291 291 292 291 292 292 292 292 292 292 292 291 291 291 290 290 289 288 288 287 287 287 286 286 285 285 285 285 285 283 281
323 323 323 323 321 319 316 312 308 306 303 301 299 298 296 293 287 283 282 290 296 296 288 286 288 290 291 290 291 292 294 290 283 278 275 276 278 282 289 294 296 297 297 296 295 293 290 288 287 288 288 289 290 290 291 292 293 293 292 292 292 292 292 291 291 291 290 290 289 289 288 288 288 287 287 287 287 287 287 287 287 287 287 286 284 281
331 327 324 321 318 315 312 308 305 302 299 298 298 297 295 289 282 279 283 292 293 288 281 281 282 285 288 290 292 292 289 285 281 278 275 276 278 282 291 297 299 300 301 299 296 291 285 283 283 286 289 291 292 293 294 295 294 293 292 291 291 290 290 290 290 289 289 289 289 288 288 288 288 288 288 288 288 288 288 288 288 288 287 285 282 279
326 321 316 312 309 307 304 300 297 294 294 295 295 295 292 286 279 277 281 283 281 279 278 279 280 283 286 291 292 291 286 285 283 276 273 280 282 287 296 298 300 301 305 304 301 296 289 286 286 290 294 296 296 296 295 294 293 291 290 290 290 289 289 289 289 289 289 289 289 289 289 288 288 288 288 288 288 288 288 288 288 288 285 283 280 277
309 305 301 298 295 293 290 286 285 286 289 292 293 292 289 281 273 269 269 269 269 272 276 278 280 281 285 289 291 289 288 294 302 304 299 290 288 292 299 298 298 300 304 304 303 302 300 298 297 297 299 298 296 294 292 291 291 290 289 289 288 288 288 289 289 289 289 289 289 289 289 289 288 288 288 288 287 287 287 287 287 286 284 282 279 277
299 296 292 289 285 281 278 278 278 281 283 285 284 282 277 273 269 265 263 263 265 268 272 276 278 280 280 279 279 280 283 293 301 305 304 294 289 290 295 295 295 297 299 295 293 294 298 301 303 303 301 297 294 291 290 289 289 288 288 288 288 287 289 290 290 290 289 289 289 289 288 288 288 287 287 286 286 285 285 285 285 284 282 280 278 277
302 298 293 289 284 279 276 275 275 275 275 273 271 269 269 269 269 269 268 266 266 268 271 275 277 278 278 275 273 273 276 283 292 298 300 294 290 289 293 293 293 294 296 291 286 282 282 289 295 299 297 293 291 290 290 289 288 287 287 288 288 288 290 291 290 289 289 289 289 288 288 287 287 286 285 284 284 283 283 283 282 281 280 278 276 274
308 304 299 295 289 283 278 275 274 272 274 273 273 273 275 276 277 277 276 273 271 269 269 271 273 275 277 276 275 274 275 279 287 295 300 295 290 288 292 292 292 294 296 292 288 284 279 283 287 292 294 292 290 289 290 290 289 288 287 286 287 288 289 290 290 289 288 288 288 287 287 286 285 284 283 282 281 280 280 280 279 278 276 274 271 269
309 305 301 296 291 286 282 279 278 279 283 286 287 287 288 287 285 282 279 276 272 268 265 264 264 266 269 273 275 277 278 283 290 297 299 293 289 288 290 289 290 293 293 290 289 288 285 284 286 289 293 294 293 290 289 289 289 288 286 285 285 286 287 289 289 288 288 287 285 284 283 283 282 281 280 279 278 278 278 278 277 276 275 273 271 269
308 305 302 300 297 295 295 296 296 297 297 295 293 292 291 290 287 284 280 276 272 269 267 264 262 261 261 264 269 273 278 284 289 293 292 288 286 285 285 285 287 288 287 286 285 285 285 286 287 289 290 291 292 292 291 291 291 290 289 288 287 287 286 287 287 286 285 284 282 281 280 280 279 278 277 277 277 277 277 277 277 277 276 274 273 271
303 302 304 305 306 306 306 306 306 305 302 300 299 297 296 294 291 287 282 277 272 269 268 266 264 262 259 259 262 266 273 280 284 285 283 281 280 279 278 280 281 281 280 280 281 283 284 286 287 288 286 286 287 292 296 298 297 295 292 292 291 289 287 286 284 282 281 279 279 278 278 278 278 277 277 277 278 278 278 278 277 277 276 275 274 272
304 306 308 310 310 309 308 307 306 305 304 305 304 302 300 296 292 289 285 279 275 271 269 267 266 264 263 263 263 265 269 273 275 276 275 274 272 271 272 275 276 276 273 274 277 280 282 284 286 288 287 285 286 289 294 297 298 296 294 293 291 289 286 285 283 280 278 278 277 278 278 278 278 278 278 278 279 279 278 277 276 275 275 274 273 271
304 305 306 308 309 309 308 307 306 305 305 305 303 302 299 296 292 289 286 283 280 277 275 273 272 270 267 265 265 266 267 268 269 269 268 266 265 265 267 271 273 274 273 272 273 274 275 277 280 282 285 287 289 290 290 292 292 293 295 294 291 287 284 285 285 283 282 281 281 280 279 278 277 276 276 276 276 275 275 274 273 272 272 272 271 270
303 303 304 305 307 306 304 303 304 305 305 303 301 300 298 297 294 292 289 288 285 283 282 280 277 274 272 270 269 268 269 267 266 266 264 260 258 257 261 266 270 273 274 272 270 269 269 271 273 276 278 282 286 289 290 289 289 291 295 295 293 290 289 290 289 288 285 282 281 280 279 277 275 274 272 272 271 270 269 269 270 270 270 269 270 271
304 303 303 303 303 301 300 300 302 303 302 301 301 301 300 300 298 296 293 291 289 287 286 284 283 281 279 276 274 273 272 269 266 264 261 257 254 253 256 260 265 268 271 271 270 268 266 269 272 274 276 278 281 283 284 285 287 289 291 289 288 288 291 291 289 286 283 280 278 277 278 278 276 275 272 271 269 268 266 266 267 268 267 264 263 264
302 301 301 301 300 300 299 301 302 302 303 303 302 301 300 299 298 297 297 296 294 293 293 293 294 293 291 287 282 276 271 267 264 261 259 255 252 252 254 257 259 263 266 269 269 268 266 267 269 271 273 275 278 280 282 283 285 286 285 284 285 288 289 286 283 282 281 281 280 280 279 279 277 276 275 273 272 270 268 266 265 265 264 261 258 256
298 296 296 297 297 297 298 301 303 304 305 303 300 297 296 296 296 296 297 296 297 298 299 299 299 298 297 295 292 287 279 270 265 263 262 257 254 252 254 255 256 257 259 264 267 268 267 266 266 267 269 271 273 276 279 283 285 285 282 283 285 288 289 286 286 286 285 284 283 282 280 278 277 275 275 274 273 271 270 267 265 263 261 259 257 255
293 292 292 293 295 297 299 302 304 304 302 298 296 295 295 295 295 295 294 294 296 298 300 301 300 297 294 293 294 296 295 289 281 273 268 265 260 256 256 256 255 255 253 256 261 267 271 270 268 268 269 270 271 273 276 280 282 284 283 282 281 280 278 283 288 290 287 283 280 278 277 276 276 276 275 274 272 270 268 266 263 260 258 256 255 254
289 289 291 295 299 303 304 304 303 301 299 297 296 296 296 296 295 294 293 294 295 297 298 301 300 297 294 295 298 301 303 303 299 292 281 274 269 266 263 261 259 257 254 252 254 259 266 270 272 272 272 271 270 270 272 276 279 280 281 281 279 277 273 277 281 283 282 281 279 277 276 277 277 277 276 274 271 268 266 265 263 260 257 254 252 251
288 292 296 301 303 303 302 301 301 299 297 295 295 295 296 295 294 292 291 292 293 295 296 297 295 293 293 297 301 304 305 305 303 301 297 289 283 277 272 268 265 262 258 256 255 256 257 263 269 274 277 274 271 268 267 271 274 277 279 280 280 279 278 278 278 278 278 279 279 278 278 278 278 277 275 273 271 269 266 264 261 259 258 254 251 249
295 299 302 303 301 298 297 298 298 298 296 295 295 295 296 296 294 292 290 291 291 292 293 292 289 288 288 292 296 299 301 302 303 303 303 300 297 292 286 280 274 270 266 263 261 259 258 259 262 266 270 273 273 272 270 270 272 274 277 280 281 281 280 279 279 278 278 277 277 278 279 280 278 276 274 274 273 272 269 265 262 259 257 254 252 250
302 302 301 300 298 297 296 297 298 297 296 296 296 295 295 295 295 294 293 293 293 293 292 291 289 286 286 287 289 292 294 296 298 300 302 302 301 299 296 292 287 282 277 273 269 267 264 261 260 259 261 265 268 272 273 273 272 272 274 277 279 280 279 279 279 279 278 275 274 273 274 274 274 274 275 276 276 274 272 269 265 262 258 255 252 251
301 299 297 296 296 296 296 297 298 297 296 297 297 296 296 295 295 295 293 294 292 291 289 288 287 287 287 287 288 289 290 290 292 294 297 299 301 301 300 299 297 293 289 283 279 275 271 265 259 255 252 253 258 264 270 271 271 271 272 274 275 276 276 277 278 279 278 276 273 271 268 267 267 269 273 276 276 276 275 273 270 266 262 257 254 252
298 295 294 294 293 294 295 297 297 298 297 298 298 299 299 298 296 293 291 290 288 286 284 284 286 287 288 288 288 289 289 290 290 292 294 297 299 301 301 301 300 299 297 293 289 285 282 275 265 255 247 246 248 254 263 267 269 270 270 270 270 272 274 276 278 279 280 280 278 275 271 269 267 267 269 272 275 277 278 276 274 271 267 262 257 254
297 295 294 293 293 293 295 297 297 297 297 298 299 299 300 299 297 294 291 288 286 284 283 282 282 283 285 287 288 288 288 289 290 291 293 296 298 299 298 299 299 299 299 297 296 295 293 291 285 275 261 251 247 248 255 263 268 271 271 270 270 272 274 276 278 280 281 282 282 280 277 274 271 269 268 270 274 277 279 279 278 276 273 270 265 261